Tracking 30292 objects as of 28-Apr-2025
HD Live streaming from Space Station
objects crossing your sky now

FALCON 9 R/B

Track FALCON 9 R/B now!
10-day predictions


NORAD ID: 44869
Int'l Code: 2019-091B
Perigee: 303.6 km
Apogee: 19,003.5 km
Inclination: 26.9 °
Period: 336.5 minutes
Semi major axis: 16024 km
RCS: Unknown
Launch date: December 17, 2019
Source: United States (US)
Launch site: AIR FORCE EASTERN TEST RANGE (AFETR)

Note: This is a ROCKET BODY
Your satellite tracking list
Your tracking list is empty




NASA's NSSDC Master Catalog

Two Line Element Set (TLE):
1 44869U 19091B   25117.40483674  .00011510  00000-0  26740-2 0  9992
2 44869  26.9202 186.6699 5834747 215.1889  86.7161  4.27980945 81209
Source of the keplerian elements: AFSPC